Albany, NY

2:31 PM EST on November 20, 2019 (GMT -0500)
Albany International

Weather History for KALB - October, 2019

Change the Weather History Date:

Sunday, October 20, 2019

  Actual Average Record
Temperature  
Mean Temperature 44 °F 48 °F  
Max Temperature 54 °F 58 °F 80 °F (1965)
Min Temperature 34 °F 38 °F 18 °F (1972)
Degree Days  
Heating Degree Days 21 17  
Month to date heating degree days 238 272  
Since 1 July heating degree days 315 439  
Cooling Degree Days 0 0  
Month to date cooling degree days 4 0  
Year to date cooling degree days 771 594  
Moisture  
Dew Point 39 °F    
Average Humidity 76    
Maximum Humidity 93    
Minimum Humidity 59    
Precipitation  
Precipitation 0.04 in 0.11 in 2.15 in (1989)
Month to date precipitation 5.38 2.42  
Year to date precipitation 36.59 31.87  
Snow  
Snow 0.00 in 0.00 in T in (1952)
Month to date snowfall 0.0 0.2  
Since 1 July snowfall 0.0 0.2  
Since 1 September snowfall 0.0 0.2  
Snow Depth 0.00 in    
Sea Level Pressure  
Sea Level Pressure 30.05 in    
Wind  
Wind Speed 3 mph (SSW)    
Max Wind Speed 10 mph    
Max Gust Speed 14 mph    
Visibility 4 miles    
Events Fog , Rain    
T = Trace of Precipitation, MM = Missing Value Source: NWS Daily Summary

Daily Weather History Graph

Daily Weather History Graph

Search for Another Location

Airport or City:

Astronomy

Oct. 20, 2019 Rise Set
Actual Time 7:14 AM EDT 6:05 PM EDT
Civil Twilight 6:45 AM EDT 6:33 PM EDT
Nautical Twilight 6:12 AM EDT 7:06 PM EDT
Astronomical Twilight 5:39 AM EDT 7:39 PM EDT
Moon 11:05 PM EDT 1:45 PM EDT
Length of Visible Light 11h 48m
Length of Day
10h 51m
Waning Gibbous, 59% of the Moon is Illuminated
Oct 20
Waning Gibbous
Oct 21
Last Quarter
Oct 27
New
Nov 4
First Quarter
Nov 12
Full

Hourly Weather History & Observations

Time (EDT) Temp. Windchill Dew Point Humidity Pressure Visibility Wind Dir Wind Speed Gust Speed Precip Events Conditions
12:51 AM 39.0 °F - 35.1 °F 86% 30.05 in 10.0 mi Calm Calm - N/A   Partly Cloudy
1:19 AM 39.0 °F 36.8 °F 35.1 °F 86% 30.04 in 5.0 mi North 3.5 mph - N/A Fog Patches of Fog
1:25 AM 37.9 °F - 35.1 °F 89% 30.04 in 1.0 mi Calm Calm - N/A Fog Patches of Fog
1:35 AM 39.0 °F 36.8 °F 35.1 °F 86% 30.04 in 0.5 mi North 3.5 mph - N/A Fog Fog
1:43 AM 39.0 °F - 35.1 °F 86% 30.05 in 0.8 mi Calm Calm - N/A   Mostly Cloudy
1:51 AM 37.9 °F - 35.1 °F 89% 30.06 in 2.5 mi Calm Calm - N/A Fog Patches of Fog
2:01 AM 37.9 °F 34.4 °F 35.1 °F 89% 30.06 in 5.0 mi NNW 4.6 mph - N/A Fog Patches of Fog
2:51 AM 37.0 °F - 34.0 °F 89% 30.06 in 10.0 mi Calm Calm - N/A Fog Patches of Fog
3:41 AM 37.0 °F - 34.0 °F 89% 30.05 in 1.0 mi Calm Calm - N/A Fog Patches of Fog
3:45 AM 35.6 °F - 33.8 °F 93% 30.05 in 0.5 mi Calm Calm - N/A Fog Fog
3:51 AM 37.0 °F - 33.1 °F 86% 30.06 in 0.5 mi Calm Calm - N/A Fog Fog
4:18 AM 35.1 °F - 32.0 °F 89% 30.04 in 2.5 mi Calm Calm - N/A Fog Patches of Fog
4:32 AM 36.0 °F - 33.1 °F 89% 30.04 in 1.5 mi Calm Calm - N/A Fog Patches of Fog
4:40 AM 35.1 °F - 32.0 °F 89% 30.04 in 0.5 mi Calm Calm - N/A Fog Fog
4:51 AM 35.1 °F 32.2 °F 32.0 °F 89% 30.05 in 1.5 mi NNW 3.5 mph - N/A Fog Patches of Fog
4:59 AM 34.0 °F - 32.0 °F 92% 30.04 in 3.0 mi Calm Calm - N/A Fog Patches of Fog
5:36 AM 36.0 °F - 33.1 °F 89% 30.04 in 0.5 mi Calm Calm - N/A Fog Patches of Fog
5:51 AM 36.0 °F - 34.0 °F 93% 30.04 in 0.5 mi Calm Calm - N/A Fog Fog
6:08 AM 35.1 °F - 32.0 °F 89% 30.05 in 1.5 mi Calm Calm - N/A Fog Patches of Fog
6:14 AM 35.1 °F - 33.1 °F 92% 30.04 in 5.0 mi Calm Calm - N/A Fog Patches of Fog
6:51 AM 37.0 °F - 34.0 °F 89% 30.05 in 10.0 mi Calm Calm - N/A Fog Patches of Fog
7:51 AM 37.9 °F - 35.1 °F 89% 30.06 in 10.0 mi Calm Calm - N/A Fog Mostly Cloudy
8:51 AM 39.9 °F 37.8 °F 37.0 °F 89% 30.07 in 10.0 mi SW 3.5 mph - N/A   Mostly Cloudy
9:51 AM 42.1 °F - 37.9 °F 85% 30.09 in 10.0 mi Calm Calm - N/A   Overcast
10:51 AM 48.0 °F - 39.0 °F 71% 30.07 in 10.0 mi South 5.8 mph - N/A   Overcast
11:51 AM 51.1 °F - 39.0 °F 63% 30.07 in 10.0 mi South 3.5 mph - N/A   Overcast
12:51 PM 53.1 °F - 39.9 °F 61% 30.06 in 10.0 mi South 8.1 mph - N/A   Overcast
1:51 PM 53.1 °F - 41.0 °F 64% 30.06 in 10.0 mi South 5.8 mph - 0.00 in Rain Light Rain
2:51 PM 53.1 °F - 43.0 °F 69% 30.05 in 10.0 mi South 6.9 mph - 0.00 in Rain Light Rain
3:51 PM 52.0 °F - 45.0 °F 77% 30.05 in 6.0 mi South 6.9 mph - 0.02 in Rain Light Rain
4:51 PM 51.1 °F - 46.0 °F 83% 30.04 in 8.0 mi SSE 5.8 mph - 0.01 in Rain Light Rain
5:51 PM 52.0 °F - 46.9 °F 83% 30.03 in 9.0 mi South 3.5 mph - 0.01 in Rain Light Rain
6:51 PM 50.0 °F - 46.0 °F 86% 30.05 in 8.0 mi NW 4.6 mph - 0.00 in   Mostly Cloudy
7:51 PM 48.0 °F - 45.0 °F 89% 30.05 in 4.0 mi Calm Calm - N/A   Mostly Cloudy
8:02 PM 48.0 °F - 44.1 °F 86% 30.04 in 2.5 mi East 3.5 mph - N/A   Mostly Cloudy
8:07 PM 48.0 °F - 45.0 °F 89% 30.04 in 4.0 mi Calm Calm - N/A Fog Patches of Fog
8:39 PM 48.0 °F - 45.0 °F 89% 30.04 in 2.5 mi Calm Calm - N/A Fog Patches of Fog
8:51 PM 48.0 °F - 45.0 °F 89% 30.05 in 2.5 mi Calm Calm - N/A Fog Patches of Fog
9:09 PM 46.9 °F - 45.0 °F 93% 30.05 in 2.0 mi Calm Calm - N/A Fog Patches of Fog
9:32 PM 46.9 °F - 45.0 °F 93% 30.05 in 1.5 mi Calm Calm - N/A Fog Patches of Fog
9:51 PM 46.9 °F - 45.0 °F 93% 30.06 in 1.5 mi Calm Calm - N/A Fog Patches of Fog
10:05 PM 46.9 °F - 44.1 °F 90% 30.05 in 0.8 mi Calm Calm - N/A Fog Patches of Fog
10:28 PM 46.0 °F - 44.1 °F 93% 30.04 in 0.5 mi Calm Calm - N/A Fog Fog
10:51 PM 46.0 °F - 43.0 °F 89% 30.06 in 0.5 mi Calm Calm - N/A Fog Fog
11:05 PM 46.0 °F - 43.0 °F 89% 30.05 in 0.5 mi Calm Calm - N/A Fog Fog
11:23 PM 44.1 °F 41.5 °F 41.0 °F 89% 30.05 in 0.2 mi NNW 4.6 mph - N/A Fog Fog
11:29 PM 43.0 °F - 41.0 °F 93% 30.05 in 0.5 mi Calm Calm - N/A Fog Fog
11:51 PM 44.1 °F 42.5 °F 41.0 °F 89% 30.06 in 0.2 mi North 3.5 mph - N/A Fog Fog